Terminal Aerodrome Forecast
Issued by NWS

Home | Current Version | Previous Version | Graphics & Text | Print | Product List | Glossary On
Versions: 1 2 3 4 5 6 7 8 9 10 11 12 13 14 15 16
000
FTUS43 KICT 231100
TAFRSL
TAF
KRSL 231120Z 2312/2412 17013KT P6SM SCT080 BKN200
     FM231500 19018G26KT P6SM SCT100
     FM232100 19018G26KT P6SM BKN100
     FM240600 17015KT P6SM SCT100=

USA.gov is the U.S. government's official web portal to all federal, state and local government web resources and services.